METEOR 2-17 DEB

Satellite information

Favourite Embed

Satellite Type and Status

DEBRISIN ORBIT

Key statistics

Satellite METEOR 2-17 DEB at a glance.

Uptime

13783

Days in orbit

Revolutions

≈ 14.0

Per day

Orbit

LEO

Low Earth Orbit

Inclination

82.5

Latest

Satellite identification and parameters

Extended collection of information and parameters for METEOR 2-17 DEB.

Object identification

Identified? True

Debris? True

Object name: METEOR 2-17 DEB

International designator: 1988-005AF

Object number (NORAD): 35371

Object ID (CCSDS): 35371

Country: COMMONWEALTH OF INDEPENDENT STATES (CIS)

Current information (Y/N): Y

RCS size: SMALL

Orbital parameters

Period: 102.535 minutes

Inclination: 82.5098 deg

SMA: 7256.729 km

Apoapsis: 892.739 km

Periapsis: 864.449 km

RAAN: 65.2037 deg

Eccentricy: 0.00194917

Argument of periapsis: 177.0284 deg

Mean anomaly: 183.1007 deg

Mean motion: 14.04401909 rev/day

Mean motion (dot): 0.00002422 rev/day2

B* drag term: 0.0015097494 1/REarth

Two-line elements (TLE)

Creation date: Oct. 24, 2025, 6:33 p.m.

Reference frame: TEME

Reference center: EARTH

Epoch: Oct. 24, 2025, 2:41 a.m. UTC

TLE line 0: 0 METEOR 2-17 DEB

TLE line 1: 1 35371U 88005AF 25297.11195033 .00002422 00000-0 15097-2 0 9992

TLE line 2: 2 35371 82.5098 65.2037 0019492 177.0284 183.1007 14.04401909627366

Live tracking on map

Real-time ground track for satellite METEOR 2-17 DEB.

In-orbit conjunctions

A list of the most updated potential collisions computed for object METEOR 2-17 DEB.

Target Orbit TCA Probability of collision Miss distance Type
COSMOS 198 LEO 2024-12-25 08:02:07 0.0004458146 114.0 (m) PAYLOAD
CZ-6A DEB SSO 2024-09-27 06:52:33 0.0001161428 529.0 (m) DEBRIS
CZ-6A DEB SSO 2024-09-26 18:52:40 0.000380835 361.0 (m) DEBRIS
THORAD AGENA D DEB SSO 2024-08-17 01:48:45 0.0001142487 113.0 (m) DEBRIS

Associated space launch

Second generation soviet meteorological satellite

METEOR 2-17 DEB was lifted into orbit during the mission ‘Tsiklon-3 | Meteor-2 17’, on board a Tsiklon-3 space rocket.

The launch took place on Jan. 30, 1988, 10:59 a.m. from 32/1.

For more information about the launch, click the button.

Launch to space Tsiklon-3 | Meteor-2 17
Tsiklon-3 | Meteor-2 17

Agency: N/A

Status: Launch Successful

Launch date: Jan. 30, 1988, 10:59 a.m. UTC

Rocket: Tsiklon-3

Launch pad: 32/1

Location: Plesetsk Cosmodrome, Russian Federation

...

Latest news about this satellite

There are no fresh news available about this satellite. Check back as we update our databases every day.


Newsletter sign-up

Weekly statistics, charts and insights to help you stay on top of the space industry.